This is the latest recevied weather packets stored in our database for station/object F5LKO-13. If no packets are shown the sender has not sent any weather packets the latest 10 day(s).
| Time | Temp. | Humidity | Pressure | Rain* | Wind** | Luminosity | Snow |
|---|---|---|---|---|---|---|---|
| 1778085440 | 18.89° C | 99% | 1015.4 hPa | 0 mm | - | 0 W/m² | - |
| 1778085134 | 18.89° C | 99% | 1015.4 hPa | 0 mm | - | 3 W/m² | - |
| 1778084828 | 18.89° C | 99% | 1015.3 hPa | 0 mm | - | 4 W/m² | - |
| 1778084522 | 18.89° C | 99% | 1015.3 hPa | 0 mm | - | 5 W/m² | - |
| 1778084224 | 18.33° C | 99% | 1015.4 hPa | 0 mm | - | 7 W/m² | - |
| 1778083909 | 17.78° C | 99% | 1015.4 hPa | 0 mm | - | 7 W/m² | - |
| 1778083604 | 18.33° C | 99% | 1015.4 hPa | 0 mm | - | 10 W/m² | - |
| 1778083298 | 18.33° C | 99% | 1015.4 hPa | 0 mm | - | 3 W/m² | - |
| 1778082991 | 18.33° C | 99% | 1015.4 hPa | 0 mm | - | 3 W/m² | - |
| 1778082685 | 18.33° C | 99% | 1015.4 hPa | 0 mm | - | 2 W/m² | - |
| 1778082388 | 18.33° C | 99% | 1015.4 hPa | 0 mm | - | 16 W/m² | - |
| 1778082073 | 17.78° C | 99% | 1015.4 hPa | 0 mm | - | 5 W/m² | - |
| 1778081767 | 17.78° C | 99% | 1015.5 hPa | 0 mm | - | 10 W/m² | - |
| 1778081461 | 18.33° C | 99% | 1015.5 hPa | 0 mm | - | 6 W/m² | - |
| 1778081155 | 19.44° C | 99% | 1015.6 hPa | 0 mm | - | 3 W/m² | - |
| 1778080849 | 18.89° C | 99% | 1015.5 hPa | 0 mm | - | 4 W/m² | - |
| 1778080551 | 17.78° C | 99% | 1015.5 hPa | 0 mm | - | 5 W/m² | - |
| 1778080236 | 17.78° C | 99% | 1015.6 hPa | 0 mm | - | 6 W/m² | - |
| 1778079930 | 17.78° C | 99% | 1015.6 hPa | 0 mm | - | 3 W/m² | - |
| 1778079624 | 18.33° C | 99% | 1015.6 hPa | 0 mm | - | 9 W/m² | - |
| 1778079317 | 18.89° C | 99% | 1015.7 hPa | 0 mm | - | 15 W/m² | - |
| 1778079011 | 18.33° C | 99% | 1015.7 hPa | 0 mm | - | 6 W/m² | - |
| 1778078714 | 17.78° C | 99% | 1015.6 hPa | 0 mm | - | 11 W/m² | - |
| 1778078399 | 17.78° C | 99% | 1015.7 hPa | 0 mm | - | 15 W/m² | - |
| 1778078093 | 18.33° C | 99% | 1015.7 hPa | 0 mm | - | 8 W/m² | - |
* Rain latest hour (hover to see other rain measurements)
** Current wind speed in m/s (hover to see current wind gust speed)